Flag for Czech Republic Weather past 2 weeks in Ostrava, Czech Republic

Now
55 °F

Passing clouds.


Feels Like: 55 °F
Forecast: 51 / 63 °F
Wind: 2 mph from Southwest

Location: Ostrava / Mosnov

Current Time: Sep 5, 2015 at 3:13:42 AM

Latest Report: Sep 5, 2015 at 2:00 AM


Visibility: 13 mi

Pressure: 29.96 "Hg

Humidity: 85%

Dew point: 50 °F

Location of OstravaLocation

Historic Weather in Ostrava — Graph

°F

Ostrava temperature yesterday

Maximum temperature yesterday: 72 °F (at 5:00 PM)
Minimum temperature yesterday: 57 °F (at 5:00 AM)
Average temperature yesterday: 63 °F

Past Weeks' High & Low Weather Summary

 TemperatureHumidityPressure
High93 °F (Aug 31, 2:00 PM)99% (Aug 30, 6:00 AM)30.29 "Hg (Aug 30, 6:00 AM)
Low47 °F (Aug 21, 5:00 AM)25% (Aug 31, 2:00 PM)29.72 "Hg (Sep 1, 6:00 PM)
Average69 °F64%30.03 "Hg
* Reported Aug 21 2:00 AM — Sep 5 2:00 AM, Ostrava, Weather by CustomWeather, © 2015

Note: Actual official high and low records may vary slightly from our data, if they occured in-between our weather recording intervals... More about our weather records

Advertising

Ostrava weather history for previous 24 hours

 ConditionsComfort  
Time TempWeatherWind HumidityBarometerVisibility
2:00 AM
Sat, Sep 5
55 °FPassing clouds.2 mph85%29.96 "Hg12 mi
1:00 AM57 °FPassing clouds.N/A80%29.97 "Hg12 mi
12:00 AM58 °FOvercast.1 mph79%29.96 "Hg12 mi
10:00 PM
Fri, Sep 4
59 °FPassing clouds.2 mph70%29.97 "Hg12 mi
9:00 PM61 °FPassing clouds.N/A67%29.96 "Hg12 mi
8:00 PM64 °FPassing clouds.3 mph60%29.95 "Hg16 mi
7:00 PM65 °FScattered clouds.3 mph52%29.94 "Hg19 mi
6:00 PM71 °FPassing clouds.3 mph40%29.93 "Hg16 mi
5:00 PM72 °FScattered clouds.N/A38%29.92 "Hg16 mi
4:00 PM70 °FScattered clouds.N/A52%29.94 "Hg16 mi
3:00 PM68 °FPartly sunny.N/A63%29.96 "Hg16 mi
2:00 PM66 °FPartly sunny.N/A69%29.97 "Hg12 mi
1:00 PM64 °FOvercast.5 mph73%29.96 "Hg12 mi
12:00 PM64 °FOvercast.N/A73%29.96 "Hg12 mi
11:00 AM63 °FOvercast.3 mph81%29.96 "Hg9 mi
10:00 AM61 °FOvercast.3 mph86%29.96 "Hg9 mi
9:00 AM60 °FOvercast.3 mph86%29.93 "Hg7 mi
8:00 AM59 °FOvercast.N/A90%29.92 "Hg7 mi
7:00 AM58 °FLight rain. Overcast.2 mph95%29.91 "Hg6 mi
6:00 AM58 °FOvercast.3 mph97%29.89 "Hg5 mi
5:00 AM57 °FRain. Overcast.N/A97%29.89 "Hg4 mi
4:00 AM58 °FRain. Low clouds.N/A95%29.89 "Hg4 mi
3:00 AM59 °FRain. Overcast.5 mph96%29.88 "Hg4 mi
Weather by CustomWeather, © 2015

See weather overviewHow to use our weather pages